Location: Demre
(36.2444°N, 29.9850°E)
Time: 11:20:55
(UTC+00:00)

COBE Rocket - Pass Details

Date: 11 March 2026
Orbit: 674 x 773 km, 97.1° (Epoch: 11 April)

Event Time Altitude Azimuth Distance (km) Brightness Sun altitude
Rises 17:06:35 0° 17° (NNE) 3,030 7.0 -13.5°
Reaches altitude 10° 17:08:53 10° 22° (NNE) 2,114 6.1 -13.9°
Maximum altitude 17:13:22 52° 98° (E) 847 3.8 -14.8°
Drops below altitude 10° 17:17:54 10° 175° (S) 2,127 6.2 -15.7°
Sets 17:20:12 0° 181° (S) 3,051 7.0 -16.2°
